RH
42 43 45 46 48 50 51 53 54 55 56 57 58 59 60 60 60 62 62 62 64 65 65 66 67 67 67 67 67 69 69 71 73 75 75 75 75 74 73 72 70 69 68 67 66 66 67 70 73 77 80 79 79 79 79 79 80 81 82 85 87 88 90 90 85 81 80 81 81 81 81 77 75 75 73 68 63 59 55 52 50 49 47 46 45
44 45 47 48 50 53 55 57 58 60 60 61 62 64 65 65 64 64 64 65 67 67 67 68 69 69 69 68 69 70 72 74 76 78 78 78 78 78 76 75 74 73 72 71 71 71 73 76 78 80 81 80 79 79 79 80 82 84 86 89 91 92 93 93 90 85 82 83 84 83 80 76 75 75 72 66 61 58 56 55 54 52 50 48 47
49 50 51 52 53 55 56 59 61 63 64 65 65 67 68 68 67 66 66 67 68 69 69 70 70 70 70 70 72 72 74 77 80 81 80 80 80 80 79 79 77 76 75 75 75 76 78 79 80 81 83 82 81 81 81 83 85 88 91 92 94 94 94 94 92 87 84 84 85 83 81 78 75 73 69 63 60 59 58 57 56 54 52 50 47
55 55 55 56 56 57 59 62 65 67 68 69 69 70 71 71 70 69 69 70 71 72 73 73 73 73 73 74 74 75 77 80 82 82 81 82 82 81 81 80 78 77 77 78 81 82 82 83 83 84 85 84 83 84 86 88 90 92 93 94 95 95 95 95 93 90 88 85 84 83 82 80 75 71 67 62 60 59 58 57 56 54 51 49 46
60 60 61 61 62 63 65 68 70 71 71 72 73 74 75 74 73 73 72 73 74 76 77 77 77 77 77 77 77 77 79 82 82 81 82 82 82 82 81 80 79 79 80 83 86 87 87 87 87 88 87 86 86 88 90 92 93 93 94 94 95 95 96 96 94 93 91 87 85 85 83 81 77 72 67 64 61 59 57 56 56 53 51 48 47
67 68 68 69 70 71 73 73 74 74 75 76 77 77 77 76 76 76 76 77 79 81 81 81 81 81 80 80 81 82 83 84 83 82 83 83 83 83 82 82 83 84 86 88 89 90 91 91 91 90 88 88 89 91 93 93 93 93 94 94 94 95 96 95 95 95 94 91 88 86 84 81 77 71 66 63 60 58 56 56 56 53 50 48 46
77 78 78 78 79 79 79 79 80 80 81 81 82 81 80 79 79 80 82 83 85 85 85 85 85 85 85 85 86 87 87 86 85 85 85 85 85 86 86 87 88 89 91 92 92 93 92 91 90 89 89 90 92 93 93 93 93 93 94 94 94 95 95 95 95 96 96 93 90 87 85 80 75 69 64 61 59 57 57 57 54 50 47 46 44
86 86 86 86 86 86 86 87 87 86 86 85 85 84 83 83 84 85 86 87 87 87 87 87 88 88 88 89 90 90 89 88 88 88 88 88 88 89 89 90 91 92 93 93 94 94 93 91 91 91 92 93 94 94 94 94 94 94 94 94 95 95 96 96 96 97 97 94 90 86 82 76 70 65 62 60 59 58 58 56 51 46 45 44 42
91 91 92 92 91 91 91 90 89 87 86 86 86 85 85 85 85 85 86 86 87 88 88 89 90 90 91 91 91 91 91 90 90 90 90 91 91 91 92 93 94 94 94 94 94 93 93 93 93 93 94 94 94 94 94 94 94 94 94 95 95 96 97 97 97 97 95 90 85 81 77 71 67 64 62 60 59 58 57 54 48 44 43 42 41
94 94 93 93 92 91 90 89 87 86 86 86 86 86 85 86 86 86 86 87 87 88 89 90 91 91 92 93 93 93 92 93 94 95 96 96 96 96 96 96 97 96 95 95 94 94 94 95 95 95 95 95 95 95 95 95 95 95 96 96 96 96 96 95 94 92 88 84 80 76 73 69 66 65 63 60 59 58 56 50 45 42 43 42 40
94 93 92 91 90 89 87 87 86 86 86 86 86 87 87 88 88 88 87 87 87 87 88 89 90 91 92 93 93 94 95 97 98 99 100 100 100 100 100 99 99 97 97 97 96 97 97 97 97 97 97 97 97 97 97 96 96 96 96 95 94 94 93 91 89 85 83 81 77 74 71 68 66 66 63 61 60 58 52 46 42 42 42 42 40
91 90 90 89 88 88 87 87 88 88 88 89 89 90 90 90 89 88 87 86 87 87 88 89 90 91 92 93 95 97 99 100 101 101 101 101 101 101 100 99 99 98 99 99 99 100 100 100 100 99 99 99 99 98 98 96 95 94 93 92 92 91 89 87 84 82 81 79 75 73 71 68 67 65 63 62 60 54 47 43 42 42 43 43 42
89 89 89 89 89 90 91 91 92 92 92 92 92 91 90 88 87 86 86 86 87 87 88 89 89 90 92 94 96 98 99 101 101 101 101 100 100 99 98 99 99 99 99 99 100 100 98 98 98 97 97 97 96 96 95 93 92 91 90 90 89 87 85 84 83 81 80 78 76 72 70 68 66 63 62 61 54 48 44 42 42 44 44 45 45
92 93 93 93 93 93 94 93 93 93 93 92 91 89 88 87 87 87 87 88 88 89 89 89 90 91 92 94 96 98 99 99 99 99 99 99 100 100 98 98 97 96 95 94 93 92 90 89 88 87 87 87 87 87 88 88 88 88 87 87 85 84 83 82 81 80 78 76 74 71 68 66 64 61 59 54 47 43 43 42 43 45 47 49 50
93 93 93 92 92 91 91 90 89 89 89 89 88 88 87 87 88 88 89 90 91 91 92 92 93 94 95 96 96 96 97 97 97 99 99 99 99 97 94 90 88 87 86 85 83 82 81 79 78 76 76 75 77 79 80 82 83 82 81 80 80 81 80 79 79 78 76 74 71 69 66 64 60 56 50 46 43 42 43 45 47 50 54 55 55
89 88 87 87 86 86 86 85 85 86 87 87 88 88 89 90 90 90 91 91 91 92 93 94 95 95 95 94 94 94 96 97 97 97 95 93 90 88 85 83 82 80 79 78 76 75 73 72 71 71 71 71 72 74 75 77 77 75 74 74 75 75 74 74 75 75 73 71 67 62 59 55 51 48 44 45 46 47 50 54 56 59 62 60 57
87 86 85 85 84 84 84 85 86 88 89 90 91 92 93 93 92 91 90 90 89 90 91 93 94 93 92 91 92 95 95 94 92 89 86 85 83 82 81 80 79 77 75 74 72 70 69 69 68 68 67 67 68 70 71 71 70 68 68 68 68 68 67 68 70 70 67 63 58 55 53 51 49 49 50 52 54 56 60 62 62 64 64 61 58
89 88 87 86 86 86 88 89 90 92 94 95 95 95 95 94 93 92 91 90 89 89 91 93 93 91 90 90 91 90 87 84 82 82 82 81 80 80 78 77 75 74 72 71 69 68 68 67 66 66 65 65 65 65 65 65 63 62 62 62 62 61 61 62 62 59 56 53 49 48 49 50 52 54 56 59 61 65 67 65 63 65 63 59 57
91 91 91 91 91 92 93 94 95 96 97 97 97 96 95 95 93 93 93 93 93 93 93 94 92 90 90 89 86 83 79 77 77 76 76 76 75 75 74 74 73 72 70 69 68 67 67 66 66 65 64 63 63 63 62 63 62 60 58 58 56 54 54 54 52 49 49 48 46 45 46 48 52 54 56 59 62 67 70 68 66 66 64 61 59
94 95 95 96 97 97 98 98 98 98 98 98 97 96 95 94 94 93 94 94 94 95 95 94 91 89 87 84 81 79 77 76 75 74 73 72 71 70 69 69 68 68 67 67 66 66 65 65 65 64 63 61 61 61 60 59 57 57 56 55 53 51 51 52 51 50 51 50 49 49 50 51 52 53 55 58 62 65 68 68 67 66 65 64 63
94 96 97 97 98 99 99 98 97 97 97 96 95 94 92 91 90 89 90 91 91 91 90 88 84 81 79 76 74 74 72 70 70 70 70 69 68 68 67 67 66 65 64 63 63 62 61 61 60 59 58 56 56 57 58 54 50 53 57 58 57 56 56 56 56 55 56 55 55 55 55 54 55 56 57 61 63 65 67 69 70 69 68 67 66
94 95 95 96 96 96 95 94 94 93 92 90 87 86 84 82 81 82 83 83 83 82 79 75 71 69 68 67 66 65 64 63 61 60 60 60 60 60 60 60 59 59 58 58 57 56 55 54 53 51 50 48 47 49 52 52 49 52 58 61 61 60 61 62 61 61 61 60 59 58 57 58 58 59 60 61 62 65 67 69 71 71 70 68 67
96 96 96 96 96 95 94 92 90 88 86 84 83 82 81 80 80 80 79 78 75 72 69 66 64 63 62 61 61 60 60 59 57 57 56 55 54 54 54 54 53 53 55 58 59 59 58 57 55 53 53 53 50 48 50 53 53 53 58 61 62 63 64 65 64 63 62 62 61 61 61 62 61 61 60 58 58 61 65 67 70 72 70 67 66
99 99 99 98 96 94 91 89 87 85 84 84 84 83 82 82 81 79 77 74 70 68 66 64 63 62 61 61 61 60 60 59 58 58 57 56 56 56 56 55 54 53 56 60 62 63 63 61 58 57 59 61 60 56 56 59 60 60 61 62 63 63 64 64 65 65 65 65 66 66 66 66 66 64 62 59 58 60 62 65 66 68 67 64 62
100 99 97 95 92 89 87 85 84 84 84 84 83 82 82 82 80 76 73 70 67 66 65 64 63 63 62 62 61 61 61 61 60 60 59 59 59 59 58 58 57 55 56 58 59 60 59 60 62 64 64 65 64 62 61 62 63 63 63 62 63 64 65 66 67 68 68 69 69 70 69 69 69 68 67 65 64 63 62 62 62 63 63 62 61
97 95 93 91 88 87 86 85 84 84 84 83 83 83 81 79 76 72 70 68 66 65 64 64 64 64 63 63 62 61 61 61 61 61 61 61 61 60 60 60 59 58 58 58 58 57 56 57 60 62 61 62 63 62 62 62 64 65 65 65 65 66 67 68 70 71 72 72 72 72 71 70 69 69 68 67 67 66 64 61 59 58 59 59 59
92 90 90 89 88 87 86 85 84 84 84 84 83 81 78 76 73 70 68 66 66 65 64 64 64 64 64 64 63 62 62 62 62 63 64 63 63 63 62 61 61 62 63 63 62 62 61 60 61 61 60 60 60 59 59 60 60 61 61 62 64 65 67 69 70 70 70 69 68 67 67 67 66 65 64 64 63 63 63 61 58 56 57 58 58
89 88 88 88 88 87 87 86 86 85 84 83 81 78 75 73 70 69 67 66 65 65 64 64 65 65 66 66 66 67 66 65 64 65 65 64 64 64 65 67 68 70 70 69 68 68 69 70 70 68 67 65 63 63 62 62 60 59 58 59 60 63 66 67 68 68 67 66 64 63 63 63 62 61 62 62 60 60 61 61 59 58 58 59 59
88 88 87 88 87 87 87 86 85 84 82 80 78 75 72 70 69 68 67 66 66 66 66 66 67 67 69 70 71 71 70 68 67 67 67 69 70 71 73 75 77 77 76 75 74 74 74 74 73 72 71 70 70 70 70 69 68 65 63 63 64 67 69 71 71 70 70 69 67 66 65 65 65 65 66 66 66 68 70 69 68 68 68 68 66
88 88 88 88 87 87 86 85 84 82 79 76 74 72 70 69 68 68 67 67 67 67 68 68 69 71 73 74 74 74 74 73 72 71 72 75 78 79 78 78 78 78 79 80 81 81 80 80 78 78 78 78 78 79 79 78 75 72 70 70 72 74 76 77 76 75 75 74 74 74 74 75 75 76 77 78 79 81 83 84 84 84 85 85 82
90 89 89 88 87 87 85 84 81 78 75 73 71 69 69 68 68 69 69 69 69 69 69 69 71 73 75 75 75 75 76 75 75 75 76 79 80 79 77 77 77 79 82 85 86 85 84 84 83 82 82 83 83 83 83 81 79 77 76 78 80 83 83 84 83 82 81 82 83 84 86 86 87 87 88 89 89 90 91 93 93 94 95 96 94
90 90 89 88 87 86 83 81 78 75 73 72 71 71 70 69 68 67 68 68 68 69 69 69 70 71 72 73 73 73 74 74 76 78 79 80 79 77 77 80 82 83 85 88 89 88 86 85 84 83 82 82 82 82 81 80 80 81 83 85 88 90 90 91 90 90 90 92 93 94 94 94 94 94 94 95 95 96 97 98 99 99 98 98 97
90 89 89 88 86 83 80 78 75 74 73 73 72 72 71 70 68 67 66 65 65 66 67 68 68 69 69 70 71 71 72 73 75 77 78 79 79 79 82 85 86 87 89 91 92 91 90 87 86 84 82 82 82 82 81 82 83 86 89 92 95 96 97 97 97 98 99 99 99 99 99 99 98 97 97 97 98 98 99 100 100 101 100 99 98
89 89 88 86 83 80 77 75 74 73 73 73 72 72 71 70 70 69 67 64 64 65 65 66 66 66 67 67 67 68 69 71 74 75 77 79 80 81 82 83 83 82 83 85 87 88 88 87 86 84 82 81 81 81 81 83 85 87 90 93 96 98 99 99 100 101 101 100 100 100 100 100 100 99 98 98 98 98 98 98 98 99 99 98 98
90 88 85 82 78 76 74 73 73 73 73 72 72 71 71 71 70 69 66 63 62 63 65 66 66 65 65 65 65 65 65 66 66 67 68 70 71 71 71 72 72 71 72 74 76 77 79 80 81 81 80 80 81 81 82 84 86 88 91 94 96 98 99 100 102 103 102 102 102 102 101 101 101 100 100 100 100 99 99 99 99 98 98 98 97
88 84 80 77 75 73 73 74 74 74 74 73 72 72 71 70 67 64 61 59 59 61 64 65 64 62 60 58 56 54 52 52 51 52 54 56 56 56 58 61 64 66 68 70 71 72 73 75 77 79 79 79 80 80 81 83 87 91 95 98 99 100 101 102 102 103 102 102 102 102 101 102 101 101 101 100 100 100 100 99 100 100 100 100 99
83 79 76 74 73 73 74 75 75 75 75 75 73 72 69 65 61 58 56 57 58 59 58 56 53 50 48 46 45 43 43 43 43 45 46 47 47 48 50 54 58 63 68 71 72 72 74 76 77 77 77 77 79 81 85 88 92 95 97 98 99 99 100 101 101 101 101 100 100 99 98 97 96 95 95 94 93 93 93 93 93 93 93 94 94
78 76 75 75 76 77 77 77 77 77 76 73 70 65 60 57 54 53 54 55 54 51 48 44 41 40 39 40 40 41 40 41 41 42 43 44 44 46 48 52 56 60 64 67 69 71 73 75 76 77 79 83 86 90 92 95 96 98 98 99 99 99 98 97 96 95 92 90 88 86 84 83 82 82 82 82 81 81 82 83 84 85 85 87 87
77 78 79 79 80 80 80 79 78 75 71 65 61 56 53 51 51 50 50 49 46 43 40 38 37 37 38 38 39 40 40 40 40 42 43 45 48 51 54 58 60 62 64 67 71 74 78 80 82 85 88 91 94 96 97 98 98 98 97 95 93 91 88 84 81 78 75 73 71 70 70 70 70 70 70 69 68 66 66 68 70 72 73 74 76
81 81 82 82 81 81 80 77 73 67 61 57 54 51 49 48 47 46 45 42 40 38 36 36 37 38 39 40 41 41 42 42 44 47 50 55 59 62 64 65 67 70 74 78 82 86 89 92 94 95 97 98 98 97 96 94 91 89 86 83 79 76 73 70 68 66 65 64 63 63 64 64 63 63 61 59 56 55 55 57 59 61 61 61 63
83 83 83 82 82 80 76 70 64 58 55 53 51 48 45 44 43 42 41 39 37 36 37 38 39 41 41 42 43 44 46 48 53 58 63 67 69 71 73 75 80 85 90 94 96 98 100 101 102 102 100 98 95 91 87 84 80 78 74 71 68 66 64 63 62 60 59 57 57 57 58 58 59 59 59 57 55 54 55 58 60 60 60 60 60
85 84 83 83 81 77 70 63 58 55 53 51 48 44 41 41 41 41 39 37 37 37 38 40 41 42 43 43 44 46 51 58 65 70 74 77 79 82 84 88 92 95 98 99 100 101 102 102 100 97 92 88 84 81 78 76 72 70 67 63 61 59 58 58 57 56 55 55 55 55 57 58 59 59 59 57 58 59 61 62 63 62 61 62 62
86 85 84 82 78 70 62 57 55 53 52 48 44 40 40 40 41 40 38 38 38 39 40 41 42 43 43 44 46 52 60 69 75 79 81 83 85 86 88 89 91 92 93 95 96 98 97 94 90 85 81 79 77 75 72 69 65 62 60 58 57 56 56 56 56 56 57 57 57 58 59 59 59 59 60 60 62 65 67 67 66 66 65 65 65
87 85 82 79 72 64 58 56 54 53 50 45 40 38 39 40 41 40 39 39 40 41 41 43 43 43 44 46 52 60 69 76 80 81 82 83 85 85 86 86 87 88 90 91 92 91 87 83 79 77 76 75 72 68 65 62 59 58 56 56 56 56 57 57 58 59 60 60 61 61 61 61 62 64 65 67 68 69 69 70 69 69 69 68 69
86 82 79 74 67 60 57 56 55 52 48 41 37 37 38 40 41 41 41 41 41 42 43 44 44 45 46 51 58 66 74 79 81 81 82 82 83 83 83 83 84 85 87 87 85 81 77 75 74 74 72 69 65 62 59 57 56 55 54 54 54 54 55 56 58 60 62 63 64 65 66 67 68 69 70 69 69 69 69 70 71 70 71 71 70
83 78 75 71 65 59 57 56 55 51 45 40 36 36 38 41 42 43 43 43 43 43 45 46 46 47 50 55 61 69 76 80 81 81 81 81 81 81 80 81 82 83 83 81 77 73 72 72 72 70 66 63 60 58 56 53 52 52 51 51 51 51 52 54 58 62 65 67 69 70 71 70 70 70 69 68 68 69 71 72 72 72 72 72 71
78 75 73 69 64 60 58 57 55 51 45 39 37 37 39 41 43 44 44 44 45 45 47 48 48 50 53 57 62 69 75 79 81 81 81 81 81 80 80 80 81 81 78 74 71 70 71 71 68 65 62 59 57 54 52 50 50 50 50 51 51 52 54 57 61 65 68 69 70 69 68 68 67 68 67 68 69 71 73 74 74 73 73 72 71
75 73 72 70 66 62 59 58 56 51 45 40 38 38 39 41 43 44 44 45 45 46 48 49 50 51 54 58 62 67 73 78 80 81 81 82 83 83 82 83 82 78 73 69 69 70 70 68 64 61 59 57 53 50 49 49 50 51 52 53 54 55 57 61 65 67 68 69 68 68 68 67 68 68 68 69 71 73 75 76 75 75 75 74 73
74 73 73 72 68 64 61 59 56 51 45 41 39 39 40 41 43 44 44 45 46 47 48 49 51 53 55 59 62 66 71 77 80 81 83 84 85 86 86 85 81 75 69 68 70 71 69 65 62 59 57 53 50 49 49 49 51 53 54 55 57 58 61 63 65 66 67 68 68 68 67 68 69 71 72 73 75 77 78 79 79 78 78 77 76
75 74 74 74 72 68 63 59 56 51 47 43 41 40 40 42 43 45 45 46 47 48 49 50 51 53 56 59 62 65 69 74 78 81 83 85 87 89 89 86 79 72 69 71 73 72 67 63 60 57 53 50 49 49 49 50 51 53 55 57 58 60 60 62 63 63 64 65 65 66 67 68 70 73 76 79 81 82 83 83 83 83 83 82 82
76 76 76 76 75 71 66 60 56 52 49 46 43 42 42 43 45 47 48 48 49 50 52 52 53 54 56 59 63 65 68 72 76 80 83 86 89 91 90 84 76 71 71 74 74 70 64 61 58 54 51 49 49 49 50 50 52 54 56 58 59 60 61 61 62 63 64 66 68 70 71 72 74 76 79 82 84 86 88 89 89 90 90 90 90